Wind_Speed
46 41 40 48 47 45 43 51 44 42 43 39 40 41 46 45 43 45 49 47 42 40 41 43 42 46 51 54 57 57 53 51 48 41 36 34 33 32
45 47 44 39 45 44 53 41 44 46 43 36 39 44 49 44 44 48 43 42 41 41 40 44 46 49 52 54 56 53 49 49 44 38 34 35 32 31
46 37 44 32 34 34 34 38 38 41 42 35 29 38 41 40 40 45 43 41 40 41 46 49 49 50 50 53 53 49 48 47 41 37 35 34 32 32
42 44 43 43 48 45 47 43 46 41 42 46 47 47 49 51 48 44 45 44 39 43 45 47 47 48 52 53 49 50 45 44 41 37 35 35 33 30
45 47 46 48 45 44 47 49 46 43 42 49 50 48 50 45 43 43 43 41 41 43 46 45 49 53 52 48 48 47 42 42 39 37 36 33 33 29
46 49 53 51 50 45 45 39 39 38 44 45 45 47 48 46 43 44 40 41 43 45 45 47 46 50 49 49 47 46 45 42 39 37 36 35 29 27
54 55 48 47 44 44 44 37 39 41 42 44 47 49 47 46 46 45 45 45 47 49 50 51 49 48 48 45 44 44 41 40 39 37 36 32 29 29
51 52 57 52 49 52 45 45 41 45 48 49 50 51 52 54 51 50 51 54 54 49 48 46 47 46 45 44 42 41 39 39 39 38 30 26 24 25
48 52 46 48 47 47 49 46 48 46 53 55 56 54 53 54 52 49 47 45 47 43 42 42 43 44 42 41 39 36 35 37 36 29 23 23 24 25
46 49 49 47 47 50 53 55 59 59 58 56 52 53 49 51 51 49 47 45 42 42 42 42 41 40 40 38 36 36 33 34 29 25 24 25 24 22
56 58 60 59 59 59 57 57 53 50 59 57 50 53 55 52 51 45 42 40 42 39 39 40 40 38 35 34 34 33 31 29 28 28 27 25 23 23
59 59 63 66 64 64 63 63 65 59 47 53 51 51 48 49 48 45 44 40 37 38 38 38 38 35 34 33 31 30 29 30 30 28 24 24 23 21
52 52 54 57 56 52 54 39 39 51 53 54 56 60 59 54 47 44 38 34 35 35 36 35 33 33 32 29 29 30 30 29 27 25 23 23 22 21
61 55 50 51 48 46 41 37 48 47 49 50 51 52 50 46 40 37 37 35 34 36 36 32 31 30 29 28 28 26 26 26 25 23 24 24 22 22
54 52 48 47 49 47 46 48 49 49 49 48 45 42 41 39 38 36 36 36 36 35 31 30 28 28 28 28 27 26 26 25 23 23 23 24 23 22
59 57 52 49 47 46 46 45 44 45 46 44 43 42 39 37 37 36 35 34 29 28 30 28 27 28 28 28 27 25 24 22 22 22 22 22 22 22
58 58 58 53 51 50 49 47 43 45 45 45 44 40 38 38 36 31 29 29 29 27 27 27 28 28 27 25 25 25 24 24 23 22 22 21 20 21
54 52 50 52 53 51 51 48 45 45 44 44 42 42 38 34 30 30 31 30 28 28 30 29 28 27 27 26 25 25 25 24 24 23 23 23 22 21
48 48 47 49 47 47 49 50 48 47 44 43 41 40 35 32 31 32 30 29 27 28 28 28 28 28 29 28 26 24 24 24 23 23 24 24 24 25
48 45 43 44 43 42 44 47 49 49 45 41 41 38 37 34 35 32 30 31 28 27 29 30 29 28 28 27 25 24 23 24 25 25 26 27 27 26
47 45 45 41 41 41 41 39 39 40 42 43 43 38 40 36 36 36 33 32 32 31 32 31 28 28 27 25 24 24 25 25 24 25 26 28 28 28
44 46 43 44 48 43 42 37 40 36 39 37 36 38 35 36 34 34 34 34 32 34 35 33 29 27 28 28 28 28 27 27 26 26 26 26 27 26
45 46 48 42 44 40 46 44 39 37 33 38 41 40 36 34 36 37 35 34 33 34 33 32 32 30 30 30 29 28 28 28 27 25 26 26 26 26
Wind_Direction
247 235 240 252 256 251 261 271 277 270 275 269 267 272 266 272 267 270 265 265 273 278 281 284 284 285 293 302 307 311 314 316 320 315 307 306 308 308
252 255 258 266 277 268 266 272 269 265 266 269 271 270 270 269 262 265 261 265 270 276 281 286 287 290 297 303 307 311 314 317 317 311 306 306 309 305
255 256 255 272 275 271 275 272 275 269 262 261 260 268 258 259 262 257 256 263 270 279 279 281 286 290 299 303 307 311 315 317 314 308 310 309 308 305
257 258 261 269 273 277 269 265 260 268 261 264 268 272 270 258 260 254 255 264 273 278 280 282 287 296 299 304 310 313 313 313 312 307 307 310 307 300
254 262 267 271 274 265 261 260 259 264 262 265 266 267 263 262 261 265 265 268 271 278 283 285 290 291 300 306 311 312 312 311 310 309 308 310 304 298
257 256 263 266 270 259 261 264 264 263 261 256 257 261 265 271 269 264 270 275 276 277 282 286 289 294 302 306 309 310 308 307 309 309 306 307 297 291
255 260 261 260 261 261 258 261 266 257 251 255 259 266 272 277 267 270 270 271 271 274 282 289 292 295 301 305 305 304 305 307 309 306 301 299 292 286
255 255 264 260 254 260 258 256 260 254 256 260 266 267 273 277 276 273 274 271 273 282 287 291 294 298 302 302 301 302 305 307 305 302 298 295 294 286
252 259 256 253 251 250 252 255 250 251 262 264 267 272 276 276 277 276 274 278 281 287 291 291 293 298 299 301 301 299 302 301 299 297 297 295 292 287
257 253 251 249 252 249 250 256 261 263 264 268 269 274 271 274 270 272 276 282 285 287 290 293 295 296 296 296 298 299 299 295 291 291 294 295 290 279
255 257 261 264 265 266 266 266 261 253 265 264 265 267 265 265 265 276 279 280 284 288 291 293 295 296 294 296 296 297 293 288 286 287 288 287 283 277
264 265 266 264 263 263 262 266 266 263 258 265 261 256 258 264 269 273 278 281 286 290 293 292 291 290 291 292 293 290 285 284 283 283 284 283 281 268
264 266 268 265 262 262 262 245 239 261 256 250 251 256 263 279 280 276 279 285 287 288 287 286 287 289 288 288 287 286 284 284 285 284 280 277 275 271
277 276 270 267 266 256 252 257 248 253 261 264 262 266 271 273 276 280 284 286 285 283 283 281 283 283 285 287 286 284 281 281 281 282 278 275 272 264
273 272 269 264 263 264 261 257 260 262 265 269 272 274 276 279 282 282 281 281 277 277 276 277 277 279 281 280 279 278 276 278 278 278 277 275 273 269
272 270 269 266 265 266 267 270 272 274 278 278 277 275 276 277 276 276 276 273 269 271 274 274 275 277 278 279 277 274 274 276 278 275 277 277 273 268
266 267 267 265 264 266 264 262 266 266 267 267 272 273 271 270 271 267 263 265 267 267 269 273 275 276 275 275 273 270 271 274 274 275 275 278 275 272
264 265 267 265 263 260 261 263 264 268 266 264 266 269 268 265 262 263 266 265 265 266 268 273 274 273 273 271 271 269 270 273 274 272 271 273 274 278
265 265 264 263 260 261 261 260 259 262 264 262 263 263 261 259 260 259 257 258 260 269 271 271 271 272 271 269 267 269 275 275 275 271 267 270 273 273
262 261 261 260 257 258 259 260 258 258 258 259 261 262 257 253 248 251 256 256 259 269 272 270 269 268 268 269 269 270 270 271 270 269 268 268 268 268
258 255 254 253 254 254 255 253 259 255 257 255 255 257 261 249 246 244 254 255 260 265 267 265 263 266 267 268 270 270 270 272 274 273 271 267 266 268
255 251 257 245 250 248 244 253 245 252 244 256 255 253 249 242 248 251 254 257 258 264 262 257 261 265 268 270 270 270 272 274 274 273 273 269 265 264
253 255 254 251 248 259 243 242 249 238 250 238 246 252 251 249 244 255 253 257 260 255 252 255 259 266 270 268 268 269 271 272 272 271 271 271 271 272
Height
5757 5759 5761 5764 5765 5767 5768 5767 5765 5766 5765 5763 5761 5760 5762 5759 5758 5758 5760 5758 5758 5757 5756 5754 5752 5750 5747 5744 5740 5736 5732 5726 5723 5718 5716 5712 5708 5705
5750 5753 5755 5756 5756 5757 5757 5756 5755 5755 5755 5753 5751 5750 5750 5749 5749 5749 5749 5749 5749 5748 5746 5745 5743 5742 5738 5735 5731 5726 5722 5717 5712 5710 5707 5704 5701 5698
5742 5743 5745 5746 5747 5747 5746 5746 5745 5745 5745 5743 5741 5742 5738 5739 5739 5740 5740 5740 5739 5738 5737 5736 5735 5731 5728 5724 5720 5715 5713 5709 5704 5701 5699 5696 5694 5691
5730 5732 5735 5735 5735 5735 5734 5734 5731 5731 5732 5733 5732 5731 5731 5730 5729 5729 5729 5729 5728 5729 5727 5726 5724 5721 5717 5714 5711 5706 5701 5700 5696 5692 5690 5688 5684 5682
5722 5723 5725 5725 5724 5723 5722 5721 5720 5719 5720 5720 5720 5720 5720 5720 5720 5719 5719 5719 5718 5718 5718 5715 5713 5711 5707 5704 5700 5695 5691 5690 5687 5683 5680 5678 5675 5673
5711 5713 5714 5714 5714 5712 5711 5711 5710 5710 5710 5708 5709 5710 5710 5710 5709 5709 5708 5708 5707 5707 5704 5702 5699 5698 5696 5693 5689 5685 5681 5679 5677 5674 5670 5668 5665 5664
5700 5702 5702 5702 5702 5701 5701 5701 5701 5700 5699 5699 5699 5699 5699 5700 5699 5698 5697 5696 5695 5693 5692 5690 5690 5688 5685 5681 5677 5674 5670 5668 5665 5665 5660 5658 5654 5655
5689 5689 5689 5689 5690 5689 5689 5691 5689 5689 5688 5688 5688 5687 5686 5687 5686 5686 5684 5683 5682 5682 5680 5679 5677 5675 5672 5668 5666 5664 5661 5659 5656 5653 5650 5646 5647 5646
5675 5676 5676 5676 5676 5676 5676 5678 5676 5675 5673 5674 5675 5674 5674 5674 5674 5673 5671 5671 5670 5668 5667 5666 5665 5663 5661 5659 5657 5654 5650 5648 5646 5644 5643 5640 5639 5638
5662 5663 5662 5663 5664 5664 5663 5664 5662 5662 5662 5660 5660 5660 5659 5659 5659 5659 5659 5658 5657 5657 5656 5654 5653 5651 5649 5648 5646 5644 5640 5639 5638 5637 5635 5634 5633 5632
5648 5648 5648 5649 5649 5650 5649 5649 5647 5643 5646 5646 5643 5644 5645 5645 5646 5645 5645 5646 5645 5644 5644 5643 5641 5639 5638 5637 5635 5633 5632 5631 5629 5628 5626 5625 5625 5624
5633 5633 5633 5632 5633 5634 5633 5632 5632 5632 5629 5629 5630 5629 5630 5631 5630 5630 5632 5632 5633 5633 5633 5632 5630 5629 5628 5625 5624 5624 5623 5623 5621 5619 5618 5617 5617 5617
5613 5614 5615 5615 5616 5616 5618 5618 5615 5614 5615 5616 5615 5616 5617 5617 5618 5618 5619 5619 5620 5621 5620 5621 5619 5618 5618 5616 5614 5615 5615 5614 5613 5611 5610 5610 5609 5609
5595 5596 5598 5600 5601 5602 5605 5604 5604 5601 5602 5602 5603 5604 5605 5606 5605 5606 5607 5608 5610 5611 5610 5608 5608 5608 5608 5608 5607 5605 5606 5607 5605 5603 5602 5602 5602 5602
5578 5579 5581 5583 5585 5587 5588 5589 5590 5589 5589 5590 5590 5591 5593 5593 5594 5595 5595 5597 5597 5598 5598 5598 5598 5598 5598 5597 5597 5597 5597 5598 5596 5595 5595 5595 5594 5595
5560 5561 5565 5567 5570 5571 5572 5574 5576 5577 5576 5577 5578 5579 5580 5581 5582 5583 5584 5586 5586 5586 5589 5588 5588 5588 5589 5589 5589 5589 5589 5588 5588 5588 5587 5588 5587 5588
5541 5544 5546 5550 5553 5555 5557 5558 5561 5562 5564 5564 5565 5567 5569 5569 5570 5572 5573 5575 5577 5577 5578 5579 5579 5580 5580 5580 5581 5581 5579 5579 5580 5580 5580 5580 5580 5580
5524 5527 5530 5532 5535 5538 5541 5543 5546 5548 5550 5550 5552 5555 5556 5558 5560 5562 5564 5565 5567 5567 5568 5568 5570 5571 5572 5573 5572 5571 5571 5571 5572 5572 5572 5572 5572 5572
5509 5511 5513 5515 5518 5520 5524 5528 5531 5534 5536 5538 5539 5542 5545 5547 5549 5551 5553 5555 5556 5558 5558 5559 5560 5562 5563 5562 5562 5562 5562 5563 5563 5563 5563 5564 5564 5564
5492 5495 5497 5499 5501 5505 5508 5510 5513 5518 5521 5525 5527 5530 5533 5535 5538 5540 5543 5545 5547 5548 5549 5550 5552 5552 5552 5553 5552 5553 5553 5554 5554 5554 5554 5554 5555 5556
5474 5478 5481 5484 5487 5490 5493 5496 5499 5502 5505 5509 5513 5517 5521 5523 5526 5529 5532 5534 5536 5538 5540 5541 5542 5542 5543 5543 5543 5544 5544 5544 5544 5544 5544 5545 5545 5546
5457 5460 5464 5468 5470 5473 5478 5481 5486 5489 5493 5497 5500 5504 5508 5511 5515 5517 5520 5522 5525 5527 5529 5531 5532 5532 5532 5533 5533 5534 5534 5534 5535 5535 5535 5536 5537 5538
5440 5444 5448 5452 5456 5458 5462 5468 5472 5477 5481 5485 5489 5493 5496 5499 5503 5506 5509 5512 5513 5515 5518 5519 5520 5521 5522 5522 5522 5523 5524 5525 5526 5527 5527 5527 5528 5529